EW4573 Weather Reports


Display with metric or nautical units.
time (UTC)temp
F
wind
direction
speed
MPH
gust
MPH
rain 1hr
in
rain 24hr
in
rain mn
in
humidity
%
barometer
mb
20260901014503 79 0 0.0 0.0 0.00 0.00 0.00 80 1018.0
20260901014003 79 0 0.0 0.0 0.00 0.00 0.00 79 1017.9
20260901013503 78 0 0.0 0.0 0.00 0.00 0.00 80 1017.8
20260901013003 78 0 0.0 0.0 0.00 0.00 0.00 80 1017.7
20260901012503 78 0 0.0 0.0 0.00 0.00 0.00 79 1017.7
20260901012003 78 0 0.0 0.0 0.00 0.00 0.00 78 1017.6
20260901011503 78 0 0.0 0.0 0.00 0.00 0.00 77 1017.6
20260901011004 79 0 0.0 0.0 0.00 0.00 0.00 78 1017.4
20260901010503 79 0 0.0 0.0 0.00 0.00 0.00 77 1017.4
20260901010004 79 0 0.0 0.0 0.00 0.00 0.00 76 1017.4
20260901005503 79 0 0.0 0.0 0.00 0.00 0.00 76 1017.4
20260901005004 79 0 0.0 0.0 0.00 0.00 0.00 75 1017.3
20260901004503 79 0 0.0 0.0 0.00 0.00 0.00 74 1017.3
20260901004003 80 0 0.0 0.0 0.00 0.00 0.00 71 1017.2
20260901003503 80 0 0.0 0.0 0.00 0.00 0.00 70 1017.2
20260901003003 80 0 0.0 0.0 0.00 0.00 0.00 68 1017.2
20260901002503 80 0 0.0 0.0 0.00 0.00 0.00 68 1017.1
20260901002003 80 0 0.0 0.0 0.00 0.00 0.00 67 1017.1
20260901001503 81 0 0.0 0.0 0.00 0.00 0.00 66 1017.1
20260901001003 81 0 0.0 0.0 0.00 0.00 0.00 67 1017.1
20260901000503 81 0 0.0 0.0 0.00 0.00 0.00 67 1017.0
20260901000004 82 0 0.0 0.0 0.00 0.00 0.00 67 1017.0
20260831235503 82 0 0.0 0.0 0.00 0.00 0.00 66 1017.0
20260831235003 83 0 0.0 0.0 0.00 0.00 0.00 66 1017.0
20260831234503 83 0 0.0 0.0 0.00 0.00 0.00 64 1017.0
20260831234003 83 0 0.0 0.0 0.00 0.00 0.00 62 1017.0
20260831233503 84 0 0.0 0.0 0.00 0.00 0.00 61 1017.0
20260831233004 84 0 0.0 0.0 0.00 0.00 0.00 61 1017.0
20260831232503 85 0 0.0 0.0 0.00 0.00 0.00 58 1016.9
20260831232003 86 0 0.0 0.0 0.00 0.00 0.00 57 1016.9
20260831231503 86 0 0.0 0.0 0.00 0.00 0.00 57 1016.9
20260831231003 87 0 0.0 0.0 0.00 0.00 0.00 56 1016.9
20260831230503 87 0 0.0 0.0 0.00 0.00 0.00 56 1016.8
20260831230003 88 0 0.0 0.0 0.00 0.00 0.00 55 1016.8
20260831225503 88 0 0.0 0.0 0.00 0.00 0.00 53 1016.9
20260831225003 89 0 0.0 0.0 0.00 0.00 0.00 53 1016.9
20260831224503 89 0 0.0 0.0 0.00 0.00 0.00 52 1016.9
20260831224003 89 0 0.0 0.0 0.00 0.00 0.00 53 1016.9
20260831223503 90 0 0.0 0.0 0.00 0.00 0.00 50 1016.9
20260831223003 90 248 0.0 1.0 0.00 0.00 0.00 51 1016.8
20260831222503 91 247 0.0 1.0 0.00 0.00 0.00 50 1016.9
20260831222003 91 249 0.0 1.0 0.00 0.00 0.00 49 1016.9
20260831221503 92 250 0.0 1.0 0.00 0.00 0.00 47 1016.8
20260831221003 93 0 0.0 0.0 0.00 0.00 0.00 46 1016.7
20260831220503 94 281 0.0 1.0 0.00 0.00 0.00 46 1016.8
20260831220003 94 199 0.0 1.0 0.00 0.00 0.00 45 1016.9
20260831215503 94 180 0.0 1.0 0.00 0.00 0.00 44 1017.0
20260831215003 94 252 0.0 1.0 0.00 0.00 0.00 46 1017.0
20260831214503 94 252 0.0 1.0 0.00 0.00 0.00 48 1017.0
20260831214003 94 294 0.0 2.0 0.00 0.00 0.00 48 1017.0
20260831213503 94 290 0.0 2.0 0.00 0.00 0.00 44 1017.1
20260831213003 94 225 0.0 2.0 0.00 0.00 0.00 45 1017.2
20260831212503 94 254 0.0 2.0 0.00 0.00 0.00 44 1017.2
20260831212003 94 277 0.0 2.0 0.00 0.00 0.00 48 1017.2
20260831211503 95 172 0.0 1.0 0.00 0.00 0.00 45 1017.1
20260831211003 95 286 0.0 1.0 0.00 0.00 0.00 47 1017.1
20260831210504 94 278 0.0 1.0 0.00 0.00 0.00 47 1017.1
20260831210004 94 276 0.0 1.0 0.00 0.00 0.00 47 1017.2
20260831205503 94 235 0.0 2.0 0.00 0.00 0.00 47 1017.3
20260831205003 93 253 0.0 5.0 0.00 0.00 0.00 46 1017.3
20260831204503 93 255 1.0 5.0 0.00 0.00 0.00 45 1017.3
20260831204003 94 255 0.0 3.0 0.00 0.00 0.00 48 1017.4
20260831203503 94 262 0.0 1.0 0.00 0.00 0.00 46 1017.3
20260831203003 94 271 0.0 2.0 0.00 0.00 0.00 44 1017.4
20260831202503 94 274 0.0 2.0 0.00 0.00 0.00 50 1017.4
20260831202003 94 260 0.0 2.0 0.00 0.00 0.00 50 1017.5
20260831201503 94 266 0.0 2.0 0.00 0.00 0.00 52 1017.5
20260831201003 94 309 0.0 2.0 0.00 0.00 0.00 48 1017.5
20260831200503 94 324 0.0 2.0 0.00 0.00 0.00 50 1017.5
20260831200003 94 297 0.0 2.0 0.00 0.00 0.00 48 1017.5
20260831195503 94 276 0.0 3.0 0.00 0.00 0.00 48 1017.6
20260831195003 94 262 0.0 3.0 0.00 0.00 0.00 50 1017.6
20260831194503 94 244 0.0 3.0 0.00 0.00 0.00 47 1017.7
20260831194003 94 281 0.0 3.0 0.00 0.00 0.00 53 1017.7
20260831193503 94 292 0.0 3.0 0.00 0.00 0.00 53 1017.8
20260831193003 94 192 0.0 1.0 0.00 0.00 0.00 51 1017.8
20260831192503 94 218 0.0 2.0 0.00 0.00 0.00 51 1017.9
20260831192003 94 209 0.0 2.0 0.00 0.00 0.00 50 1017.9
20260831191503 94 159 0.0 1.0 0.00 0.00 0.00 52 1017.9
20260831191003 94 175 0.0 2.0 0.00 0.00 0.00 51 1018.0
20260831190503 94 168 0.0 2.0 0.00 0.00 0.00 52 1018.2
20260831190003 93 177 0.0 2.0 0.00 0.00 0.00 51 1018.2
20260831185503 93 231 0.0 2.0 0.00 0.00 0.00 53 1018.3
20260831185003 93 291 0.0 1.0 0.00 0.00 0.00 53 1018.3
20260831184503 93 263 0.0 3.0 0.00 0.00 0.00 52 1018.4
20260831184003 93 246 1.0 3.0 0.00 0.00 0.00 54 1018.4
20260831183503 93 230 0.0 3.0 0.00 0.00 0.00 52 1018.5
20260831183003 93 272 0.0 3.0 0.00 0.00 0.00 54 1018.5
20260831182503 93 315 0.0 3.0 0.00 0.00 0.00 56 1018.5
20260831182003 92 94 0.0 1.0 0.00 0.00 0.00 55 1018.6
20260831181503 92 101 0.0 1.0 0.00 0.00 0.00 53 1018.7
20260831181003 92 182 0.0 1.0 0.00 0.00 0.00 57 1018.7
20260831180503 92 217 0.0 1.0 0.00 0.00 0.00 55 1018.7
20260831180004 91 148 0.0 2.0 0.00 0.00 0.00 56 1018.7
20260831175503 91 249 1.0 3.0 0.00 0.00 0.00 57 1018.7
20260831175003 91 259 1.0 3.0 0.00 0.00 0.00 54 1018.8
20260831174503 92 176 0.0 2.0 0.00 0.00 0.00 53 1018.8
20260831174003 92 160 0.0 2.0 0.00 0.00 0.00 57 1018.8
20260831173503 91 37 0.0 2.0 0.00 0.00 0.00 57 1018.8
20260831173003 90 65 0.0 3.0 0.00 0.00 0.00 57 1018.9
20260831172503 90 61 0.0 3.0 0.00 0.00 0.00 58 1019.0
20260831172003 90 64 0.0 5.0 0.00 0.00 0.00 58 1019.0
20260831171503 89 71 1.0 5.0 0.00 0.00 0.00 62 1018.9
20260831171003 89 70 0.0 3.0 0.00 0.00 0.00 59 1018.9
20260831170504 89 59 0.0 3.0 0.00 0.00 0.00 60 1019.0
20260831170003 89 70 1.0 3.0 0.00 0.00 0.00 59 1019.1
20260831165503 88 75 1.0 3.0 0.00 0.00 0.00 62 1019.1
20260831165003 88 63 0.0 3.0 0.00 0.00 0.00 60 1019.1
20260831164503 89 280 1.0 4.0 0.00 0.00 0.00 61 1019.1
20260831164003 89 240 1.0 4.0 0.00 0.00 0.00 59 1019.2
20260831163503 89 173 0.0 3.0 0.00 0.00 0.00 60 1019.2
20260831163003 89 38 0.0 1.0 0.00 0.00 0.00 63 1019.3
20260831162503 88 41 0.0 1.0 0.00 0.00 0.00 63 1019.4
20260831162003 88 82 0.0 3.0 0.00 0.00 0.00 64 1019.4
20260831161503 87 84 0.0 3.0 0.00 0.00 0.00 65 1019.3
20260831161003 87 71 0.0 3.0 0.00 0.00 0.00 66 1019.4
20260831160503 86 60 1.0 3.0 0.00 0.00 0.00 71 1019.5
20260831160003 86 72 1.0 5.0 0.00 0.00 0.00 67 1019.6
20260831155503 86 77 0.0 5.0 0.00 0.00 0.00 67 1019.6
20260831155003 86 69 0.0 3.0 0.00 0.00 0.00 68 1019.6
20260831154503 86 60 0.0 3.0 0.00 0.00 0.00 68 1019.7
20260831154003 85 318 0.0 3.0 0.00 0.00 0.00 71 1019.7
20260831153503 85 251 0.0 3.0 0.00 0.00 0.00 70 1019.8
20260831153003 84 75 0.0 3.0 0.00 0.00 0.00 71 1019.9
20260831152503 84 75 0.0 3.0 0.00 0.00 0.00 73 1020.0
20260831152003 83 263 0.0 4.0 0.00 0.00 0.00 75 1020.0
20260831151503 83 31 0.0 4.0 0.00 0.00 0.00 74 1020.0
20260831151003 83 57 0.0 3.0 0.00 0.00 0.00 75 1019.9
20260831150503 83 55 0.0 3.0 0.00 0.00 0.00 76 1020.0
20260831150003 82 60 0.0 4.0 0.00 0.00 0.00 77 1019.9
20260831145503 82 52 0.0 4.0 0.00 0.00 0.00 77 1019.9
20260831145003 82 48 0.0 3.0 0.00 0.00 0.00 78 1019.9
20260831144503 82 52 0.0 3.0 0.00 0.00 0.00 77 1019.9
20260831144003 81 51 0.0 3.0 0.00 0.00 0.00 80 1019.9
20260831143503 81 65 0.0 3.0 0.00 0.00 0.00 81 1019.9
20260831143003 80 156 0.0 2.0 0.00 0.00 0.00 81 1019.9
20260831142503 80 67 1.0 4.0 0.00 0.00 0.00 82 1019.9
20260831142003 80 60 0.0 4.0 0.00 0.00 0.00 83 1019.7
20260831141503 80 233 0.0 4.0 0.00 0.00 0.00 84 1019.7
20260831141003 79 236 1.0 4.0 0.00 0.00 0.00 84 1019.7
20260831140503 79 235 0.0 3.0 0.00 0.00 0.00 85 1019.6
20260831140003 79 42 0.0 2.0 0.00 0.00 0.00 86 1019.5
20260831135503 78 56 0.0 2.0 0.00 0.00 0.00 87 1019.5
20260831135003 78 242 0.0 3.0 0.00 0.00 0.00 87 1019.5
20260831134503 78 241 0.0 3.0 0.00 0.00 0.00 89 1019.5
20260831134003 77 236 0.0 2.0 0.00 0.00 0.00 90 1019.5
20260831133503 77 228 0.0 2.0 0.00 0.00 0.00 91 1019.4
20260831133003 77 226 0.0 2.0 0.00 0.00 0.00 93 1019.5
20260831132503 76 97 0.0 1.0 0.00 0.00 0.00 93 1019.5
20260831132003 76 242 0.0 1.0 0.00 0.00 0.00 94 1019.5
20260831131503 75 245 0.0 1.0 0.00 0.00 0.00 95 1019.5
20260831131004 75 231 0.0 1.0 0.00 0.00 0.00 96 1019.5
20260831130503 75 253 0.0 1.0 0.00 0.00 0.00 97 1019.6
20260831130003 74 252 0.0 1.0 0.00 0.00 0.00 97 1019.6
20260831125503 74 252 0.0 1.0 0.00 0.00 0.00 97 1019.6
20260831125003 74 249 0.0 1.0 0.00 0.00 0.00 97 1019.6
20260831124503 74 69 0.0 2.0 0.00 0.00 0.00 97 1019.6
20260831124003 73 70 0.0 2.0 0.00 0.00 0.00 97 1019.6
20260831123503 73 75 0.0 2.0 0.00 0.00 0.00 97 1019.6
20260831123003 73 236 0.0 1.0 0.00 0.00 0.00 97 1019.6
20260831122503 73 0 0.0 0.0 0.00 0.00 0.00 97 1019.6
20260831122003 72 0 0.0 0.0 0.00 0.00 0.00 97 1019.6
20260831121503 72 234 0.0 1.0 0.00 0.00 0.00 97 1019.6
20260831121003 72 234 0.0 1.0 0.00 0.00 0.00 97 1019.6
20260831120503 72 0 0.0 0.0 0.00 0.00 0.00 97 1019.6
20260831120003 72 0 0.0 0.0 0.00 0.00 0.00 97 1019.5
20260831115503 71 0 0.0 0.0 0.00 0.00 0.00 97 1019.5
20260831115003 71 0 0.0 0.0 0.00 0.00 0.00 97 1019.5
20260831114503 71 0 0.0 0.0 0.00 0.00 0.00 97 1019.4
20260831114003 71 0 0.0 0.0 0.00 0.00 0.00 97 1019.5
20260831113503 70 0 0.0 0.0 0.00 0.00 0.00 97 1019.4
20260831113003 70 0 0.0 0.0 0.00 0.00 0.00 97 1019.4
20260831112503 70 0 0.0 0.0 0.00 0.00 0.00 97 1019.3
20260831112003 70 0 0.0 0.0 0.00 0.00 0.00 97 1019.5
20260831111503 70 0 0.0 0.0 0.00 0.00 0.00 97 1019.5
20260831111003 69 0 0.0 0.0 0.00 0.00 0.00 97 1019.4
20260831110503 69 0 0.0 0.0 0.00 0.00 0.00 97 1019.4
20260831110003 69 0 0.0 0.0 0.00 0.00 0.00 97 1019.5
20260831105503 69 0 0.0 0.0 0.00 0.00 0.00 97 1019.4
20260831105003 69 0 0.0 0.0 0.00 0.00 0.00 97 1019.4
20260831104503 69 0 0.0 0.0 0.00 0.00 0.00 97 1019.4
20260831104003 69 0 0.0 0.0 0.00 0.00 0.00 97 1019.4
20260831103503 69 0 0.0 0.0 0.00 0.00 0.00 97 1019.3
20260831103003 69 0 0.0 0.0 0.00 0.00 0.00 97 1019.3
20260831102503 69 0 0.0 0.0 0.00 0.00 0.00 97 1019.2
20260831102003 69 0 0.0 0.0 0.00 0.00 0.00 97 1019.2
20260831101503 69 0 0.0 0.0 0.00 0.00 0.00 97 1019.2
20260831101003 69 0 0.0 0.0 0.00 0.00 0.00 97 1019.2
20260831100503 69 0 0.0 0.0 0.00 0.00 0.00 97 1019.1
20260831100003 69 0 0.0 0.0 0.00 0.00 0.00 97 1019.0
20260831095503 69 0 0.0 0.0 0.00 0.00 0.00 97 1019.0
20260831095003 69 0 0.0 0.0 0.00 0.00 0.00 97 1019.1
20260831094503 69 0 0.0 0.0 0.00 0.00 0.00 97 1019.1
20260831094003 69 0 0.0 0.0 0.00 0.00 0.00 97 1019.0
20260831093503 69 0 0.0 0.0 0.00 0.00 0.00 97 1018.9
20260831093003 69 0 0.0 0.0 0.00 0.00 0.00 97 1018.9
20260831092503 69 0 0.0 0.0 0.00 0.00 0.00 97 1019.0
20260831092003 69 0 0.0 0.0 0.00 0.00 0.00 97 1019.0
20260831091503 69 0 0.0 0.0 0.00 0.00 0.00 97 1019.0
20260831091003 69 0 0.0 0.0 0.00 0.00 0.00 97 1018.9
20260831090503 69 0 0.0 0.0 0.00 0.00 0.00 97 1018.9
20260831090003 70 0 0.0 0.0 0.00 0.00 0.00 97 1019.0
20260831085503 70 0 0.0 0.0 0.00 0.00 0.00 97 1019.0
20260831085003 70 0 0.0 0.0 0.00 0.00 0.00 97 1019.0
20260831084503 70 0 0.0 0.0 0.00 0.00 0.00 97 1019.0
20260831084003 70 0 0.0 0.0 0.00 0.00 0.00 97 1019.0
20260831083503 70 0 0.0 0.0 0.00 0.00 0.00 97 1019.0
20260831083003 70 0 0.0 0.0 0.00 0.00 0.00 97 1018.9
20260831082503 70 0 0.0 0.0 0.00 0.00 0.00 96 1018.9
20260831082003 70 0 0.0 0.0 0.00 0.00 0.00 96 1018.9
20260831081503 70 0 0.0 0.0 0.00 0.00 0.00 96 1019.0
20260831081003 70 0 0.0 0.0 0.00 0.00 0.00 97 1018.9
20260831080503 70 0 0.0 0.0 0.00 0.00 0.00 97 1018.9
20260831080003 70 0 0.0 0.0 0.00 0.00 0.00 96 1018.9
20260831075503 70 0 0.0 0.0 0.00 0.00 0.00 97 1019.0
20260831075003 70 0 0.0 0.0 0.00 0.00 0.00 96 1019.0
20260831074503 70 0 0.0 0.0 0.00 0.00 0.00 96 1019.0
20260831074003 70 0 0.0 0.0 0.00 0.00 0.00 97 1019.0
20260831073503 70 0 0.0 0.0 0.00 0.00 0.00 96 1019.0
20260831073003 70 0 0.0 0.0 0.00 0.00 0.00 96 1019.1
20260831072503 70 0 0.0 0.0 0.00 0.00 0.00 96 1019.1
20260831072004 70 0 0.0 0.0 0.00 0.00 0.00 96 1019.2
20260831071503 70 0 0.0 0.0 0.00 0.00 0.00 96 1019.3
20260831071003 70 0 0.0 0.0 0.00 0.00 0.00 96 1019.3
20260831070503 70 0 0.0 0.0 0.00 0.00 0.00 96 1019.3
20260831070003 70 0 0.0 0.0 0.00 0.00 0.00 96 1019.3
20260831065503 70 233 0.0 1.0 0.00 0.00 0.00 96 1019.3
20260831065003 71 233 0.0 1.0 0.00 0.00 0.00 96 1019.3
20260831064503 71 0 0.0 0.0 0.00 0.00 0.00 97 1019.3
20260831064003 70 0 0.0 0.0 0.00 0.00 0.00 96 1019.3
20260831063503 70 0 0.0 0.0 0.00 0.00 0.00 96 1019.4
20260831063003 70 0 0.0 0.0 0.00 0.00 0.00 96 1019.4
20260831062514 70 0 0.0 0.0 0.00 0.00 0.00 96 1019.4
20260831062003 70 0 0.0 0.0 0.00 0.00 0.00 96 1019.4
20260831061503 71 0 0.0 0.0 0.00 0.00 0.00 96 1019.3
20260831061003 71 0 0.0 0.0 0.00 0.00 0.00 96 1019.3
20260831060503 71 0 0.0 0.0 0.00 0.00 0.00 96 1019.4
20260831060003 71 0 0.0 0.0 0.00 0.00 0.00 96 1019.3
20260831055503 71 0 0.0 0.0 0.00 0.00 0.00 96 1019.4
20260831055003 71 0 0.0 0.0 0.00 0.00 0.00 96 1019.4
20260831054503 71 0 0.0 0.0 0.00 0.00 0.00 96 1019.5
20260831054003 71 0 0.0 0.0 0.00 0.00 0.00 96 1019.5
20260831053503 71 0 0.0 0.0 0.00 0.00 0.00 96 1019.5
20260831053003 71 0 0.0 0.0 0.00 0.00 0.00 96 1019.6
20260831052503 71 0 0.0 0.0 0.00 0.00 0.00 96 1019.6
20260831052003 71 0 0.0 0.0 0.00 0.00 0.00 96 1019.6
20260831051503 71 0 0.0 0.0 0.00 0.00 0.00 96 1019.6
20260831051003 71 0 0.0 0.0 0.00 0.00 0.00 96 1019.6
20260831050503 71 0 0.0 0.0 0.00 0.00 0.00 96 1019.7
20260831050003 71 0 0.0 0.0 0.00 0.00 0.00 95 1019.7
20260831045503 71 0 0.0 0.0 0.00 0.00 0.00 95 1019.6
20260831045003 71 0 0.0 0.0 0.00 0.00 0.00 95 1019.7
20260831044503 71 0 0.0 0.0 0.00 0.00 0.00 95 1019.6
20260831044003 71 0 0.0 0.0 0.00 0.00 0.00 95 1019.6
20260831043503 71 0 0.0 0.0 0.00 0.00 0.00 95 1019.6
20260831043003 72 0 0.0 0.0 0.00 0.00 0.00 95 1019.6
20260831042503 72 0 0.0 0.0 0.00 0.00 0.00 95 1019.7
20260831042003 72 0 0.0 0.0 0.00 0.00 0.00 95 1019.7
20260831041503 72 0 0.0 0.0 0.00 0.00 0.00 95 1019.7
20260831041003 72 0 0.0 0.0 0.00 0.00 0.00 95 1019.7
20260831040503 72 0 0.0 0.0 0.00 0.00 0.00 95 1019.5
20260831040003 72 0 0.0 0.0 0.00 0.00 0.00 95 1019.6
20260831035503 72 0 0.0 0.0 0.00 0.00 0.00 95 1019.6
20260831035003 72 0 0.0 0.0 0.00 0.00 0.00 95 1019.6
20260831034503 72 0 0.0 0.0 0.00 0.00 0.00 95 1019.6
20260831034003 72 0 0.0 0.0 0.00 0.00 0.00 95 1019.6
20260831033503 72 0 0.0 0.0 0.00 0.00 0.00 95 1019.7
20260831033003 72 0 0.0 0.0 0.00 0.00 0.00 95 1019.7
20260831032503 72 0 0.0 0.0 0.00 0.00 0.00 95 1019.7
20260831032003 72 0 0.0 0.0 0.00 0.00 0.00 94 1019.7
20260831031503 72 0 0.0 0.0 0.00 0.00 0.00 94 1019.7
20260831031003 72 0 0.0 0.0 0.00 0.00 0.00 94 1019.8
20260831030503 72 0 0.0 0.0 0.00 0.00 0.00 94 1019.8
20260831030003 72 0 0.0 0.0 0.00 0.00 0.00 94 1019.7
20260831025503 72 0 0.0 0.0 0.00 0.00 0.00 94 1019.7
20260831025003 72 0 0.0 0.0 0.00 0.00 0.00 93 1019.7
20260831024503 73 0 0.0 0.0 0.00 0.00 0.00 93 1019.7
20260831024003 73 0 0.0 0.0 0.00 0.00 0.00 93 1019.8
20260831023503 73 0 0.0 0.0 0.00 0.00 0.00 93 1019.9
20260831023003 73 0 0.0 0.0 0.00 0.00 0.00 93 1019.8
20260831022503 73 0 0.0 0.0 0.00 0.00 0.00 93 1019.8
20260831022003 73 0 0.0 0.0 0.00 0.00 0.00 92 1019.8
20260831021503 73 0 0.0 0.0 0.00 0.00 0.00 92 1019.8
20260831021003 74 0 0.0 0.0 0.00 0.00 0.00 92 1019.8
20260831020503 74 0 0.0 0.0 0.00 0.00 0.00 92 1019.8
20260831020003 74 0 0.0 0.0 0.00 0.00 0.00 92 1019.7
20260831015503 74 0 0.0 0.0 0.00 0.00 0.00 92 1019.7
20260831015003 74 0 0.0 0.0 0.00 0.00 0.00 92 1019.8